User: anonymous   Login
Location: Caltech
(34.1382°N, 118.1253°W)
Time: 02:45:50
(UTC-07:00)
Language:

Tiros 1 despin weight - Orbit

View from above orbital plane
View from above orbital plane
View from above satellite
View from above satellite

Ground track
Ground track

The orbit data is extracted from the following two-line orbital elements,

1   115U 60002D   17295.92627709 +.00000285 +00000-0 +61322-4 0  9994
2   115 048.1666 250.1225 0035583 300.9252 058.8165 14.83176129048021
Epoch (UTC): 22 October 2017 22:13:50
Eccentricity: 0.0035583
inclination: 48.1666°
perigee height: 594 km
apogee height: 644 km
right ascension of ascending node: 250.1225°
argument of perigee: 300.9252°
revolutions per day: 14.83176129
mean anomaly at epoch: 58.8165°
orbit number at epoch: 4802

The dashed part of the orbit path shows where the satellite is in the earth's shadow,  

DLR